SL-14 DEB, 45278

Orbit data source: Space-Track

SL-14 DEB, 45278 is space debris in LEO originally from a launch on Thu, 15 Aug 1991 UTC launched from the Plesetsk Missile And Space Complex (PKMTR). Debris objects in space refer to the collection of defunct objects orbiting the Earth. Examples of debris include non-operational satellites, rocket bodies, and fragments generated from explosions, collisions, or faulty payload assembly.

Loading next visibility...
Identifier
45278, 1991-056Q
Orbit
LEO
Country
Flag of CISCIS
Related business
Manufacturer
Unknown
Mission
Spacecraft
Bus & Motor
Unknown
Mass
Unknown
Launch date (UTC)
1991-08-15 (35 years ago)
Launch vehicle
Unknown
Launch site
Plesetsk Missile And Space Complex (PKMTR)
Object type
Payload
Rocket body
Debris
Shape & HBR
Unknown shape, 0.2 m
Radar Cross Section
Medium (>0.1 m² and <1 m²)

Expand to show TLE details & history
Last TLE update: 20 hours ago

TLE from 20 hours ago
0 SL-14 DEB
1 45278U 91056Q   26257.11053562  .00009859  00000-0  82842-2 0  9999
2 45278  82.5612 298.3375 0141597  44.8280 316.4215 13.83374445327794
Epoch: 2026-09-14T02:39Z
TLE epoch observation values (Epoch: 2026-09-14T02:39:10.277Z)
Latitude
-0.00003°
Longitude
-94.55086°
Altitude
880.348 km
Speed
7.45 km/s
True Right ascension
19h 53m 20s
True Declination
0° 00' 00"
Sunlit
Object was in full shadow at epoch
Visualization orbit readout
Latitude
Unknown
Longitude
Unknown
Altitude
Unknown
Speed
Unknown
Apparent Right ascension
Unknown
Apparent Declination
Unknown
Sunlit
N/A
Visualization observer readout
Local Sidereal Time
15:17:45
Azimuth
Unknown
Elevation
Unknown
Doppler factor
Unknown
Orbital elements
Apogee altitude
1,052.845 km
Perigee altitude
845.342 km
Semi-major axis
7,327.231 km
Eccentricity
0.01416
Inclination
82.5612°
RAAN
298.3375°
Arg. of periapsis
44.828°
True anomaly
315.28853°
Mean anomaly
316.4215°
Eccentric anomaly
315.85647°
Mean motion
3.46046 °/min
Orbital period
104.03 mins
BSTAR
0.0082842
Loading maneuver chart data...
Computing Atmospheric mass density...
Loading historical data...
Loading historical data...
Loading historical data...
Loading historical data...
Loading historical data...
Loading historical data...
Loading historical data...

Documentation

Showing up to 5 results
|